TimePST,TemperatureF,Dew PointF,Humidity,Sea Level PressureIn,VisibilityMPH,Wind Direction,Wind SpeedMPH,Gust SpeedMPH,PrecipitationIn,Events,Conditions,WindDirDegrees,DateUTC
12:15 AM,32.0,15.8,51,30.24,10.0,NNE,4.6,-,N/A,,Unknown,20,2013-02-12 08:15:00
12:35 AM,32.0,14.0,48,30.24,10.0,NNW,5.8,-,N/A,,Unknown,330,2013-02-12 08:35:00
12:55 AM,33.8,14.0,44,30.24,10.0,NNW,8.1,-,N/A,,Unknown,340,2013-02-12 08:55:00
1:15 AM,33.8,14.0,44,30.24,10.0,North,6.9,-,N/A,,Unknown,360,2013-02-12 09:15:00
1:35 AM,33.8,12.2,41,30.24,10.0,North,5.8,-,N/A,,Unknown,350,2013-02-12 09:35:00
1:55 AM,32.0,10.4,41,30.24,10.0,North,5.8,-,N/A,,Unknown,10,2013-02-12 09:55:00
2:15 AM,33.8,10.4,38,30.25,10.0,North,5.8,-,N/A,,Unknown,350,2013-02-12 10:15:00
2:35 AM,35.6,10.4,35,30.25,10.0,North,5.8,-,N/A,,Unknown,360,2013-02-12 10:35:00
2:55 AM,33.8,8.6,35,30.26,10.0,North,5.8,-,N/A,,Unknown,360,2013-02-12 10:55:00
3:15 AM,37.4,8.6,30,30.26,10.0,NW,4.6,-,N/A,,Unknown,320,2013-02-12 11:15:00
3:35 AM,35.6,8.6,33,30.27,10.0,WNW,4.6,-,N/A,,Unknown,300,2013-02-12 11:35:00
3:55 AM,35.6,8.6,33,30.27,10.0,North,3.5,-,N/A,,Unknown,10,2013-02-12 11:55:00
4:15 AM,35.6,6.8,30,30.27,10.0,North,3.5,-,N/A,,Unknown,350,2013-02-12 12:15:00
4:35 AM,35.6,6.8,30,30.28,10.0,Calm,Calm,-,N/A,,Unknown,0,2013-02-12 12:35:00
4:55 AM,35.6,6.8,30,30.28,10.0,North,4.6,-,N/A,,Unknown,350,2013-02-12 12:55:00
5:15 AM,33.8,6.8,32,30.29,10.0,North,6.9,-,N/A,,Unknown,350,2013-02-12 13:15:00
5:35 AM,35.6,6.8,30,30.29,10.0,North,4.6,-,N/A,,Unknown,10,2013-02-12 13:35:00
5:55 AM,37.4,6.8,28,30.30,10.0,North,6.9,-,N/A,,Unknown,360,2013-02-12 13:55:00
6:15 AM,32.0,8.6,38,30.30,10.0,North,9.2,-,N/A,,Unknown,360,2013-02-12 14:15:00
6:35 AM,35.6,8.6,33,30.31,10.0,North,10.4,-,N/A,,Unknown,350,2013-02-12 14:35:00
6:55 AM,35.6,6.8,30,30.32,10.0,North,8.1,-,N/A,,Unknown,350,2013-02-12 14:55:00
7:15 AM,37.4,8.6,30,30.33,10.0,North,8.1,-,N/A,,Unknown,350,2013-02-12 15:15:00
7:35 AM,39.2,6.8,26,30.33,10.0,NNW,10.4,-,N/A,,Unknown,330,2013-02-12 15:35:00
7:55 AM,41.0,6.8,24,30.34,10.0,North,8.1,-,N/A,,Unknown,350,2013-02-12 15:55:00
8:15 AM,41.0,6.8,24,30.35,10.0,North,10.4,-,N/A,,Unknown,360,2013-02-12 16:15:00
8:35 AM,44.6,5.0,20,30.35,10.0,North,9.2,-,N/A,,Unknown,350,2013-02-12 16:35:00
8:55 AM,44.6,5.0,20,30.35,10.0,NNE,6.9,-,N/A,,Unknown,20,2013-02-12 16:55:00
9:15 AM,44.6,5.0,20,30.36,10.0,NE,8.1,-,N/A,,Unknown,40,2013-02-12 17:15:00
9:35 AM,44.6,5.0,20,30.36,10.0,NE,8.1,-,N/A,,Unknown,40,2013-02-12 17:35:00
9:55 AM,44.6,6.8,21,30.36,10.0,NE,6.9,-,N/A,,Unknown,40,2013-02-12 17:55:00
10:15 AM,46.4,6.8,20,30.35,10.0,NE,5.8,-,N/A,,Unknown,50,2013-02-12 18:15:00
10:35 AM,48.2,6.8,19,30.35,10.0,NE,9.2,-,N/A,,Unknown,50,2013-02-12 18:35:00
10:55 AM,48.2,6.8,19,30.34,10.0,NNE,5.8,-,N/A,,Unknown,30,2013-02-12 18:55:00
11:15 AM,48.2,6.8,19,30.33,10.0,North,9.2,-,N/A,,Unknown,350,2013-02-12 19:15:00
11:35 AM,48.2,6.8,19,30.32,10.0,North,11.5,-,N/A,,Unknown,360,2013-02-12 19:35:00
11:55 AM,50.0,6.8,17,30.31,10.0,NNW,5.8,-,N/A,,Unknown,330,2013-02-12 19:55:00
12:15 PM,50.0,6.8,17,30.30,10.0,North,5.8,-,N/A,,Unknown,360,2013-02-12 20:15:00
12:35 PM,50.0,6.8,17,30.29,10.0,NW,5.8,-,N/A,,Unknown,320,2013-02-12 20:35:00
12:55 PM,50.0,6.8,17,30.28,10.0,NNW,8.1,-,N/A,,Unknown,340,2013-02-12 20:55:00
1:15 PM,51.8,6.8,16,30.28,10.0,NNE,6.9,-,N/A,,Unknown,30,2013-02-12 21:15:00
1:35 PM,50.0,8.6,19,30.27,10.0,ENE,4.6,-,N/A,,Unknown,60,2013-02-12 21:35:00
1:55 PM,51.8,8.6,18,30.27,10.0,NNE,6.9,-,N/A,,Unknown,30,2013-02-12 21:55:00
2:15 PM,51.8,8.6,18,30.26,10.0,ENE,6.9,-,N/A,,Unknown,70,2013-02-12 22:15:00
2:35 PM,53.6,8.6,16,30.26,10.0,NE,5.8,-,N/A,,Unknown,40,2013-02-12 22:35:00
2:55 PM,53.6,8.6,16,30.26,10.0,NE,9.2,-,N/A,,Unknown,40,2013-02-12 22:55:00
3:15 PM,53.6,8.6,16,30.26,10.0,NE,6.9,-,N/A,,Unknown,40,2013-02-12 23:15:00
3:35 PM,53.6,8.6,16,30.26,10.0,NNW,10.4,-,N/A,,Unknown,330,2013-02-12 23:35:00
3:55 PM,53.6,8.6,16,30.26,10.0,NE,6.9,-,N/A,,Unknown,50,2013-02-12 23:55:00
4:15 PM,53.6,8.6,16,30.26,10.0,North,3.5,-,N/A,,Unknown,360,2013-02-13 00:15:00
4:35 PM,51.8,10.4,19,30.26,10.0,NE,8.1,-,N/A,,Unknown,40,2013-02-13 00:35:00
4:55 PM,50.0,10.4,20,30.26,10.0,NNE,6.9,-,N/A,,Unknown,30,2013-02-13 00:55:00
5:15 PM,48.2,10.4,22,30.25,10.0,NE,6.9,-,N/A,,Unknown,40,2013-02-13 01:15:00
5:35 PM,46.4,12.2,25,30.25,10.0,Calm,Calm,-,N/A,,Unknown,0,2013-02-13 01:35:00
5:55 PM,44.6,10.4,25,30.26,10.0,Calm,Calm,-,N/A,,Unknown,0,2013-02-13 01:55:00
6:15 PM,44.6,14.0,29,30.26,10.0,Calm,Calm,-,N/A,,Unknown,0,2013-02-13 02:15:00
6:55 PM,42.8,14.0,31,30.26,10.0,North,5.8,-,N/A,,Unknown,10,2013-02-13 02:55:00
7:15 PM,42.8,14.0,31,30.26,10.0,NNW,5.8,-,N/A,,Unknown,330,2013-02-13 03:15:00
7:35 PM,41.0,14.0,33,30.26,10.0,North,5.8,-,N/A,,Unknown,350,2013-02-13 03:35:00
7:55 PM,41.0,14.0,33,30.26,10.0,North,6.9,-,N/A,,Unknown,350,2013-02-13 03:55:00
8:15 PM,41.0,17.6,39,30.26,10.0,NNE,3.5,-,N/A,,Unknown,30,2013-02-13 04:15:00
8:35 PM,39.2,15.8,39,30.26,10.0,North,5.8,-,N/A,,Unknown,10,2013-02-13 04:35:00
8:55 PM,41.0,12.2,31,30.26,10.0,Calm,Calm,-,N/A,,Unknown,0,2013-02-13 04:55:00
9:15 PM,44.6,8.6,23,30.27,10.0,Calm,Calm,-,N/A,,Unknown,0,2013-02-13 05:15:00
9:35 PM,44.6,10.4,25,30.27,10.0,Calm,Calm,-,N/A,,Unknown,0,2013-02-13 05:35:00
9:55 PM,39.2,14.0,36,30.27,10.0,Calm,Calm,-,N/A,,Unknown,0,2013-02-13 05:55:00
10:15 PM,39.2,17.6,42,30.27,10.0,NNE,4.6,-,N/A,,Unknown,30,2013-02-13 06:15:00
10:35 PM,39.2,17.6,42,30.27,10.0,NNE,8.1,-,N/A,,Unknown,30,2013-02-13 06:35:00
10:55 PM,42.8,14.0,31,30.28,10.0,NNE,9.2,-,N/A,,Unknown,30,2013-02-13 06:55:00
11:15 PM,41.0,15.8,36,30.28,10.0,Calm,Calm,-,N/A,,Unknown,0,2013-02-13 07:15:00
11:35 PM,41.0,15.8,36,30.27,10.0,North,3.5,-,N/A,,Unknown,360,2013-02-13 07:35:00
11:55 PM,41.0,17.6,39,30.27,10.0,NW,6.9,-,N/A,,Unknown,320,2013-02-13 07:55:00